Showing default

RESURS O1, 23342

Orbit data source: Space-Track

RESURS O1, 23342 is a payload satellite owned by Priroda (CIS) in SSO that was launched on Fri, 04 Nov 1994 UTC via a ZENIT-2 launch vehicle from the Tyuratam Missile And Space Complex (TTMTR). Payload-class satellites include a variety of spacecraft equipped with specific instruments for various scientific and technological missions. These include communications satellites like Starlink; space stations such as the ISS; scientific satellites like the Hubble; Earth observation satellites from companies like Planet Labs, Umbra, and HawkEye 360; GPS; miniature CubeSats for education and research; and military/defense satellites.

Loading next visibility...
Identifier
23342, 1994-074A
Orbit
SSO
Country
Flag of CISCIS
Related business
Manufacturer
VNIIEM
Mission
Civil Imaging
Bus & Motor
RESURS-O, Unknown motor
Mass
1,900 kg wet, 1,900 kg dry
Launch date (UTC)
1994-11-04 (31 years ago)
Launch vehicle
ZENIT-2
Launch site
Tyuratam Missile And Space Complex (TTMTR)
Object type
Payload
Rocket body
Debris
Shape & HBR
Cyl + 2 Pan, 5.8 m
Radar Cross Section
11.656 m², Large (>1 m²)

Expand to show TLE details & history
Last TLE update: 9 hours ago

TLE from 9 hours ago
0 RESURS O1
1 23342U 94074A   26035.06581809  .00000906  00000-0  11256-3 0  9994
2 23342  97.6737  58.5303 0001848 108.8780 251.2636 14.84875726684175
Epoch: 2026-02-04T01:34Z
TLE epoch observation values (Epoch: 2026-02-04T01:34:46.682Z)
Latitude
-0.00003°
Longitude
-99.40195°
Altitude
617.426 km
Speed
7.55 km/s
True Right ascension
03h 54m 07s
True Declination
0° 00' 00"
Sunlit
Object was in daylight at epoch
Visualization orbit readout
Latitude
Unknown
Longitude
Unknown
Altitude
Unknown
Speed
Unknown
Apparent Right ascension
Unknown
Apparent Declination
Unknown
Sunlit
N/A
Visualization observer readout
Local Sidereal Time
12:21:55
Azimuth
Unknown
Elevation
Unknown
Doppler factor
Unknown
Orbital elements
Apogee altitude
612.292 km
Perigee altitude
609.709 km
Semi-major axis
6,989.137 km
Eccentricity
0.00018
Inclination
97.6737°
RAAN
58.5303°
Arg. of periapsis
108.878°
True anomaly
251.24355°
Mean anomaly
251.2636°
Eccentric anomaly
251.25357°
Mean motion
3.71456 °/min
Orbital period
96.92 mins
BSTAR
0.00011256
Loading maneuver chart data...
Computing Atmospheric mass density...

Documentation

Showing up to 5 results
|